Location: Battersea Observatory
(44.4318°N, 76.3841°W)
Time: 21:37:34
(UTC-04:00)

Tiros 1 despin weight - Pass Details

Date: 22 January 2022
Orbit: 592 x 639 km, 48.2° (Epoch: 25 May)

Event Time Altitude Azimuth Distance (km) Brightness Sun altitude
Rises 22:05:17 0° 289° (WNW) 2,927 - -52.9°
Reaches altitude 10° 22:07:37 10° 292° (WNW) 2,023 - -53.3°
Maximum altitude 22:12:17 72° 17° (NNE) 674 - -54.0°
Drops below altitude 10° 22:16:58 10° 102° (ESE) 2,030 - -54.7°
Sets 22:19:18 0° 104° (ESE) 2,938 - -55.0°
